owner,sensor,date,latitude,longitude,vertical_datum,direction_of_sea_water_velocity,sea_water_speed,upward_sea_water_velocity,qcFlag 
TABS,ioos:station:wmo:42045:1,2002-05-14T00:00:00Z,26.2168,-96.4998,2.0,0.0,0.0,-99999.0,'11133222,11111222,99999999' 
TABS,ioos:station:wmo:42045:1,2002-05-14T22:00:00Z,26.2168,-96.4998,2.0,38.65110862,30.43670482,-99999.0,'11111222,11111222,99999999' 
TABS,ioos:station:wmo:42045:1,2002-05-14T22:30:00Z,26.2168,-96.4998,2.0,45.74525811,28.81703836,-99999.0,'11111222,11111222,99999999' 
TABS,ioos:station:wmo:42045:1,2002-05-14T23:00:00Z,26.2168,-96.4998,2.0,54.47983629,30.5684805,-99999.0,'11111222,11111222,99999999' 
TABS,ioos:station:wmo:42045:1,2002-05-14T23:30:00Z,26.2168,-96.4998,2.0,60.76338283,29.64670808,-99999.0,'11111222,11111222,99999999' 
TABS,ioos:station:wmo:42045:1,2002-05-15T00:00:00Z,26.2168,-96.4998,2.0,64.35980734,27.43118299,-99999.0,'11111222,11111222,99999999' 
TABS,ioos:station:wmo:42045:1,2002-05-15T01:00:00Z,26.2168,-96.4998,2.0,87.0616945,22.23923785,-99999.0,'11111222,11111222,99999999' 
TABS,ioos:station:wmo:42045:1,2002-05-15T01:30:00Z,26.2168,-96.4998,2.0,92.87971729,16.52086257,-99999.0,'11111222,11111222,99999999' 
TABS,ioos:station:wmo:42045:1,2002-05-15T02:00:00Z,26.2168,-96.4998,2.0,103.7128524,20.62798342,-99999.0,'11111222,11111222,99999999' 
TABS,ioos:station:wmo:42045:1,2002-05-15T02:30:00Z,26.2168,-96.4998,2.0,111.9600718,19.44051954,-99999.0,'11111222,11111222,99999999' 
TABS,ioos:station:wmo:42045:1,2002-05-15T03:00:00Z,26.2168,-96.4998,2.0,128.0956114,19.35242879,-99999.0,'11111222,11111222,99999999' 
TABS,ioos:station:wmo:42045:1,2002-05-15T04:00:00Z,26.2168,-96.4998,2.0,147.0113451,19.70720173,-99999.0,'11111222,11111222,99999999' 
TABS,ioos:station:wmo:42045:1,2002-05-15T04:30:00Z,26.2168,-96.4998,2.0,155.5909318,17.59242166,-99999.0,'11111222,11111222,99999999' 
TABS,ioos:station:wmo:42045:1,2002-05-15T05:00:00Z,26.2168,-96.4998,2.0,170.920082,15.01818231,-99999.0,'11111222,11111222,99999999' 
TABS,ioos:station:wmo:42045:1,2002-05-15T05:30:00Z,26.2168,-96.4998,2.0,181.5613658,16.14599641,-99999.0,'11111222,11111222,99999999' 
TABS,ioos:station:wmo:42045:1,2002-05-15T06:00:00Z,26.2168,-96.4998,2.0,195.7422948,14.74300173,-99999.0,'11111222,11111222,99999999' 
TABS,ioos:station:wmo:42045:1,2002-05-15T07:00:00Z,26.2168,-96.4998,2.0,221.1327437,18.34876835,-99999.0,'11111222,11111222,99999999' 
TABS,ioos:station:wmo:42045:1,2002-05-15T07:30:00Z,26.2168,-96.4998,2.0,227.7714328,16.96212251,-99999.0,'11111222,11111222,99999999' 
TABS,ioos:station:wmo:42045:1,2002-05-15T08:00:00Z,26.2168,-96.4998,2.0,237.0888072,20.19018078,-99999.0,'11111222,11111222,99999999' 
TABS,ioos:station:wmo:42045:1,2002-05-15T08:30:00Z,26.2168,-96.4998,2.0,244.3818365,21.37078613,-99999.0,'11111222,11111222,99999999' 
TABS,ioos:station:wmo:42045:1,2002-05-15T09:00:00Z,26.2168,-96.4998,2.0,253.5550195,23.49092165,-99999.0,'11111222,11111222,99999999' 
TABS,ioos:station:wmo:42045:1,2002-05-15T10:00:00Z,26.2168,-96.4998,2.0,259.2081032,22.32481355,-99999.0,'11111222,11111222,99999999' 
TABS,ioos:station:wmo:42045:1,2002-05-15T10:30:00Z,26.2168,-96.4998,2.0,268.316184,26.21131244,-99999.0,'11111222,11111222,99999999' 
TABS,ioos:station:wmo:42045:1,2002-05-15T11:00:00Z,26.2168,-96.4998,2.0,270.7903689,27.56261961,-99999.0,'11111222,11111222,99999999' 
TABS,ioos:station:wmo:42045:1,2002-05-15T11:30:00Z,26.2168,-96.4998,2.0,277.8946974,28.17702965,-99999.0,'11111222,11111222,99999999' 
TABS,ioos:station:wmo:42045:1,2002-05-15T12:00:00Z,26.2168,-96.4998,2.0,278.7860581,28.67647119,-99999.0,'11111222,11111222,99999999' 
TABS,ioos:station:wmo:42045:1,2002-05-15T13:00:00Z,26.2168,-96.4998,2.0,290.6946161,29.59979223,-99999.0,'11111222,11111222,99999999' 
TABS,ioos:station:wmo:42045:1,2002-05-15T13:30:00Z,26.2168,-96.4998,2.0,296.9117444,27.37444429,-99999.0,'11111222,11111222,99999999' 
TABS,ioos:station:wmo:42045:1,2002-05-15T14:00:00Z,26.2168,-96.4998,2.0,306.8478337,25.58000195,-99999.0,'11111222,11111222,99999999' 
TABS,ioos:station:wmo:42045:1,2002-05-15T14:30:00Z,26.2168,-96.4998,2.0,309.786546,26.53436451,-99999.0,'11111222,11111222,99999999' 
TABS,ioos:station:wmo:42045:1,2002-05-15T15:00:00Z,26.2168,-96.4998,2.0,314.5431793,26.58806123,-99999.0,'11111222,11111222,99999999' 
TABS,ioos:station:wmo:42045:1,2002-05-15T16:00:00Z,26.2168,-96.4998,2.0,327.5161445,27.14749344,-99999.0,'11111222,11111222,99999999' 
TABS,ioos:station:wmo:42045:1,2002-05-15T16:30:00Z,26.2168,-96.4998,2.0,340.7272187,27.02455365,-99999.0,'11111222,11111222,99999999' 
TABS,ioos:station:wmo:42045:1,2002-05-15T17:00:00Z,26.2168,-96.4998,2.0,347.6428921,26.8214019,-99999.0,'11111222,11111222,99999999' 
TABS,ioos:station:wmo:42045:1,2002-05-15T17:30:00Z,26.2168,-96.4998,2.0,352.5223634,26.58610915,-99999.0,'11111222,11111222,99999999' 
TABS,ioos:station:wmo:42045:1,2002-05-15T18:00:00Z,26.2168,-96.4998,2.0,351.4170049,27.00242397,-99999.0,'11111222,11111222,99999999' 
TABS,ioos:station:wmo:42045:1,2002-05-15T19:00:00Z,26.2168,-96.4998,2.0,1.218650903,28.21637999,-99999.0,'11111222,11111222,99999999' 
TABS,ioos:station:wmo:42045:1,2002-05-15T19:30:00Z,26.2168,-96.4998,2.0,7.468750873,27.92692249,-99999.0,'11111222,11111222,99999999' 
TABS,ioos:station:wmo:42045:1,2002-05-15T20:00:00Z,26.2168,-96.4998,2.0,11.94816156,28.35426776,-99999.0,'11111222,11111222,99999999' 
TABS,ioos:station:wmo:42045:1,2002-05-15T20:30:00Z,26.2168,-96.4998,2.0,15.68994051,27.40095801,-99999.0,'11111222,11111222,99999999' 
TABS,ioos:station:wmo:42045:1,2002-05-15T21:00:00Z,26.2168,-96.4998,2.0,16.76678263,27.69748183,-99999.0,'11111222,11111222,99999999' 
TABS,ioos:station:wmo:42045:1,2002-05-15T22:00:00Z,26.2168,-96.4998,2.0,37.88086216,26.18807553,-99999.0,'11111222,11111222,99999999' 
TABS,ioos:station:wmo:42045:1,2002-05-15T22:30:00Z,26.2168,-96.4998,2.0,53.15676971,25.86600278,-99999.0,'11111222,11111222,99999999' 
TABS,ioos:station:wmo:42045:1,2002-05-15T23:00:00Z,26.2168,-96.4998,2.0,64.59653035,30.88644525,-99999.0,'11111222,11111222,99999999' 
TABS,ioos:station:wmo:42045:1,2002-05-15T23:30:00Z,26.2168,-96.4998,2.0,60.17034778,30.15535773,-99999.0,'11111222,11111222,99999999' 
TABS,ioos:station:wmo:42045:1,2002-05-16T00:00:00Z,26.2168,-96.4998,2.0,54.22978612,27.20100917,-99999.0,'11111222,11111222,99999999' 
TABS,ioos:station:wmo:42045:1,2002-05-16T01:00:00Z,26.2168,-96.4998,2.0,52.18681387,21.98698024,-99999.0,'11111222,11111222,99999999' 
TABS,ioos:station:wmo:42045:1,2002-05-16T01:30:00Z,26.2168,-96.4998,2.0,60.05365787,22.21599874,-99999.0,'11111222,11111222,99999999' 
TABS,ioos:station:wmo:42045:1,2002-05-16T02:00:00Z,26.2168,-96.4998,2.0,60.8422197,22.63876763,-99999.0,'11111222,11111222,99999999' 
TABS,ioos:station:wmo:42045:1,2002-05-16T02:30:00Z,26.2168,-96.4998,2.0,68.98647028,18.90742976,-99999.0,'11111222,11111222,99999999' 
TABS,ioos:station:wmo:42045:1,2002-05-16T03:00:00Z,26.2168,-96.4998,2.0,73.95930007,17.33492717,-99999.0,'11111222,11111222,99999999' 
TABS,ioos:station:wmo:42045:1,2002-05-16T04:00:00Z,26.2168,-96.4998,2.0,94.62495641,10.29351738,-99999.0,'11111222,11111222,99999999' 
TABS,ioos:station:wmo:42045:1,2002-05-16T04:30:00Z,26.2168,-96.4998,2.0,87.82775827,8.706256371,-99999.0,'11133222,11111222,99999999' 
TABS,ioos:station:wmo:42045:1,2002-05-16T05:00:00Z,26.2168,-96.4998,2.0,141.9628259,5.891222284,-99999.0,'11133222,11111222,99999999' 
TABS,ioos:station:wmo:42045:1,2002-05-16T05:30:00Z,26.2168,-96.4998,2.0,149.4461518,2.636000759,-99999.0,'11133222,11111222,99999999' 
TABS,ioos:station:wmo:42045:1,2002-05-16T06:00:00Z,26.2168,-96.4998,2.0,173.3233251,3.010415254,-99999.0,'11133222,11111222,99999999' 
TABS,ioos:station:wmo:42045:1,2002-05-16T07:00:00Z,26.2168,-96.4998,2.0,262.6652174,6.109991817,-99999.0,'11133222,11111222,99999999' 
TABS,ioos:station:wmo:42045:1,2002-05-16T07:30:00Z,26.2168,-96.4998,2.0,248.0778518,7.071294082,-99999.0,'11133222,11111222,99999999' 
TABS,ioos:station:wmo:42045:1,2002-05-16T08:00:00Z,26.2168,-96.4998,2.0,261.9999671,8.694607524,-99999.0,'11133222,11111222,99999999' 
TABS,ioos:station:wmo:42045:1,2002-05-16T08:30:00Z,26.2168,-96.4998,2.0,286.8742555,12.88473903,-99999.0,'11111222,11111222,99999999' 
TABS,ioos:station:wmo:42045:1,2002-05-16T09:00:00Z,26.2168,-96.4998,2.0,287.4236127,16.29775751,-99999.0,'11111222,11111222,99999999' 
TABS,ioos:station:wmo:42045:1,2002-05-16T10:00:00Z,26.2168,-96.4998,2.0,307.188846,16.5442558,-99999.0,'11111222,11111222,99999999' 
TABS,ioos:station:wmo:42045:1,2002-05-16T10:30:00Z,26.2168,-96.4998,2.0,316.2021459,18.2049334,-99999.0,'11111222,11111222,99999999' 
TABS,ioos:station:wmo:42045:1,2002-05-16T11:00:00Z,26.2168,-96.4998,2.0,317.6506388,20.79704306,-99999.0,'11111222,11111222,99999999' 
TABS,ioos:station:wmo:42045:1,2002-05-16T11:30:00Z,26.2168,-96.4998,2.0,305.184632,25.63309189,-99999.0,'11111222,11111222,99999999' 
TABS,ioos:station:wmo:42045:1,2002-05-16T12:00:00Z,26.2168,-96.4998,2.0,307.4875465,27.4735946,-99999.0,'11111222,11111222,99999999' 
TABS,ioos:station:wmo:42045:1,2002-05-16T13:00:00Z,26.2168,-96.4998,2.0,315.1728058,28.18540402,-99999.0,'11111222,11111222,99999999' 
TABS,ioos:station:wmo:42045:1,2002-05-16T13:30:00Z,26.2168,-96.4998,2.0,316.2667232,27.19489842,-99999.0,'11111222,11111222,99999999' 
TABS,ioos:station:wmo:42045:1,2002-05-16T14:00:00Z,26.2168,-96.4998,2.0,326.2767188,28.45889843,-99999.0,'11111222,11111222,99999999' 
TABS,ioos:station:wmo:42045:1,2002-05-16T14:30:00Z,26.2168,-96.4998,2.0,334.954711,30.1885889,-99999.0,'11111222,11111222,99999999' 
TABS,ioos:station:wmo:42045:1,2002-05-16T15:00:00Z,26.2168,-96.4998,2.0,339.7870489,29.14493781,-99999.0,'11111222,11111222,99999999' 
TABS,ioos:station:wmo:42045:1,2002-05-16T16:00:00Z,26.2168,-96.4998,2.0,345.1597987,27.99379396,-99999.0,'11111222,11111222,99999999' 
TABS,ioos:station:wmo:42045:1,2002-05-16T16:30:00Z,26.2168,-96.4998,2.0,349.7265468,29.60464997,-99999.0,'11111222,11111222,99999999' 
TABS,ioos:station:wmo:42045:1,2002-05-16T17:00:00Z,26.2168,-96.4998,2.0,348.2367059,29.47914008,-99999.0,'11111222,11111222,99999999' 
TABS,ioos:station:wmo:42045:1,2002-05-16T17:30:00Z,26.2168,-96.4998,2.0,350.1872367,29.27836403,-99999.0,'11111222,11111222,99999999' 
TABS,ioos:station:wmo:42045:1,2002-05-16T18:00:00Z,26.2168,-96.4998,2.0,354.5733225,32.35502588,-99999.0,'11111222,11111222,99999999' 
TABS,ioos:station:wmo:42045:1,2002-05-16T18:30:00Z,26.2168,-96.4998,2.0,359.966665,34.16000585,-99999.0,'11111222,11144222,99999999' 
TABS,ioos:station:wmo:42045:1,2002-05-16T19:00:00Z,26.2168,-96.4998,2.0,3.037925917,36.23090946,-99999.0,'11111222,11111222,99999999' 
TABS,ioos:station:wmo:42045:1,2002-05-16T19:30:00Z,26.2168,-96.4998,2.0,10.55263435,34.56456712,-99999.0,'11111222,11111222,99999999' 
TABS,ioos:station:wmo:42045:1,2002-05-16T20:00:00Z,26.2168,-96.4998,2.0,15.27809886,35.25598105,-99999.0,'11111222,11111222,99999999' 
TABS,ioos:station:wmo:42045:1,2002-05-16T20:30:00Z,26.2168,-96.4998,2.0,19.11575247,34.87289635,-99999.0,'11111222,11111222,99999999' 
TABS,ioos:station:wmo:42045:1,2002-05-16T21:00:00Z,26.2168,-96.4998,2.0,20.84432706,34.67973039,-99999.0,'11111222,11111222,99999999' 
TABS,ioos:station:wmo:42045:1,2002-05-16T22:00:00Z,26.2168,-96.4998,2.0,25.82362395,33.5169942,-99999.0,'11111222,11111222,99999999' 
TABS,ioos:station:wmo:42045:1,2002-05-16T22:30:00Z,26.2168,-96.4998,2.0,29.43271008,32.53975568,-99999.0,'11111222,11111222,99999999' 
TABS,ioos:station:wmo:42045:1,2002-05-16T23:00:00Z,26.2168,-96.4998,2.0,33.56658419,33.42353811,-99999.0,'11111222,11111222,99999999' 
TABS,ioos:station:wmo:42045:1,2002-05-16T23:30:00Z,26.2168,-96.4998,2.0,33.58991521,33.27651574,-99999.0,'11111222,11111222,99999999' 
TABS,ioos:station:wmo:42045:1,2002-05-17T00:00:00Z,26.2168,-96.4998,2.0,42.10456949,28.69567389,-99999.0,'11111222,11111222,99999999' 
TABS,ioos:station:wmo:42045:1,2002-05-17T01:00:00Z,26.2168,-96.4998,2.0,63.16195989,28.15241553,-99999.0,'11111222,11111222,99999999' 
TABS,ioos:station:wmo:42045:1,2002-05-17T01:30:00Z,26.2168,-96.4998,2.0,69.9194523,25.10619047,-99999.0,'11111222,11111222,99999999' 
TABS,ioos:station:wmo:42045:1,2002-05-17T02:00:00Z,26.2168,-96.4998,2.0,74.85391928,20.28463458,-99999.0,'11111222,11111222,99999999' 
TABS,ioos:station:wmo:42045:1,2002-05-17T02:30:00Z,26.2168,-96.4998,2.0,73.5905444,14.58404951,-99999.0,'11111222,11111222,99999999' 
TABS,ioos:station:wmo:42045:1,2002-05-17T03:00:00Z,26.2168,-96.4998,2.0,80.78647185,12.11631957,-99999.0,'11111222,11111222,99999999' 
TABS,ioos:station:wmo:42045:1,2002-05-17T04:00:00Z,26.2168,-96.4998,2.0,109.9731659,9.895170539,-99999.0,'11133222,11111222,99999999' 
TABS,ioos:station:wmo:42045:1,2002-05-17T04:30:00Z,26.2168,-96.4998,2.0,143.0685021,9.320005365,-99999.0,'11133222,11111222,99999999' 
TABS,ioos:station:wmo:42045:1,2002-05-17T05:00:00Z,26.2168,-96.4998,2.0,139.0732497,7.067708257,-99999.0,'11133222,11111222,99999999' 
TABS,ioos:station:wmo:42045:1,2002-05-17T05:30:00Z,26.2168,-96.4998,2.0,168.9993477,5.083404371,-99999.0,'11133222,11111222,99999999' 
TABS,ioos:station:wmo:42045:1,2002-05-17T06:00:00Z,26.2168,-96.4998,2.0,226.9870639,4.485755232,-99999.0,'11133222,11111222,99999999' 
TABS,ioos:station:wmo:42045:1,2002-05-17T07:00:00Z,26.2168,-96.4998,2.0,289.4523023,10.69018241,-99999.0,'11111222,11111222,99999999' 
TABS,ioos:station:wmo:42045:1,2002-05-17T07:30:00Z,26.2168,-96.4998,2.0,297.5383694,13.43176087,-99999.0,'11111222,11111222,99999999' 
TABS,ioos:station:wmo:42045:1,2002-05-17T08:00:00Z,26.2168,-96.4998,2.0,287.9489576,18.62648652,-99999.0,'11111222,11111222,99999999' 
TABS,ioos:station:wmo:42045:1,2002-05-17T08:30:00Z,26.2168,-96.4998,2.0,295.1045331,18.24330014,-99999.0,'11111222,11111222,99999999' 
TABS,ioos:station:wmo:42045:1,2002-05-17T09:00:00Z,26.2168,-96.4998,2.0,295.3983666,19.98117614,-99999.0,'11111222,11111222,99999999' 
TABS,ioos:station:wmo:42045:1,2002-05-17T10:00:00Z,26.2168,-96.4998,2.0,305.9187397,23.96730481,-99999.0,'11111222,11111222,99999999' 
TABS,ioos:station:wmo:42045:1,2002-05-17T10:30:00Z,26.2168,-96.4998,2.0,299.6075444,28.90389766,-99999.0,'11111222,11111222,99999999' 
TABS,ioos:station:wmo:42045:1,2002-05-17T11:00:00Z,26.2168,-96.4998,2.0,295.4725282,30.71574515,-99999.0,'11111222,11111222,99999999' 
TABS,ioos:station:wmo:42045:1,2002-05-17T11:30:00Z,26.2168,-96.4998,2.0,298.5489777,34.75590597,-99999.0,'11111222,11111222,99999999' 
TABS,ioos:station:wmo:42045:1,2002-05-17T12:00:00Z,26.2168,-96.4998,2.0,298.245219,34.0207422,-99999.0,'11111222,11111222,99999999' 
TABS,ioos:station:wmo:42045:1,2002-05-17T12:30:00Z,26.2168,-96.4998,2.0,309.0126675,34.77430804,-99999.0,'11111222,11111222,99999999' 
TABS,ioos:station:wmo:42045:1,2002-05-17T13:00:00Z,26.2168,-96.4998,2.0,313.2849869,36.14228133,-99999.0,'11111222,11111222,99999999' 
TABS,ioos:station:wmo:42045:1,2002-05-17T13:30:00Z,26.2168,-96.4998,2.0,310.8100494,33.09621429,-99999.0,'11111222,11111222,99999999' 
TABS,ioos:station:wmo:42045:1,2002-05-17T14:00:00Z,26.2168,-96.4998,2.0,317.794594,31.18513268,-99999.0,'11111222,11111222,99999999' 
TABS,ioos:station:wmo:42045:1,2002-05-17T14:30:00Z,26.2168,-96.4998,2.0,326.7533784,33.70736566,-99999.0,'11111222,11111222,99999999' 
TABS,ioos:station:wmo:42045:1,2002-05-17T15:00:00Z,26.2168,-96.4998,2.0,335.1359297,39.47951874,-99999.0,'11111222,11111222,99999999' 
TABS,ioos:station:wmo:42045:1,2002-05-17T16:00:00Z,26.2168,-96.4998,2.0,342.5825301,42.92836009,-99999.0,'11111222,11111222,99999999' 
TABS,ioos:station:wmo:42045:1,2002-05-17T16:30:00Z,26.2168,-96.4998,2.0,345.8718949,43.75348329,-99999.0,'11111222,11111222,99999999' 
TABS,ioos:station:wmo:42045:1,2002-05-17T17:00:00Z,26.2168,-96.4998,2.0,350.0856027,43.73313732,-99999.0,'11111222,11111222,99999999' 
TABS,ioos:station:wmo:42045:1,2002-05-17T17:30:00Z,26.2168,-96.4998,2.0,356.8548345,44.28671697,-99999.0,'11111222,11111222,99999999' 
TABS,ioos:station:wmo:42045:1,2002-05-17T18:00:00Z,26.2168,-96.4998,2.0,0.670304414,44.46304083,-99999.0,'11111222,11111222,99999999' 
TABS,ioos:station:wmo:42045:1,2002-05-17T18:30:00Z,26.2168,-96.4998,2.0,2.836979378,44.65472092,-99999.0,'11111222,11111222,99999999' 
TABS,ioos:station:wmo:42045:1,2002-05-17T19:00:00Z,26.2168,-96.4998,2.0,6.638139432,41.43778107,-99999.0,'11111222,11111222,99999999' 
TABS,ioos:station:wmo:42045:1,2002-05-17T20:00:00Z,26.2168,-96.4998,2.0,21.17368992,43.5500287,-99999.0,'11111222,11111222,99999999' 
TABS,ioos:station:wmo:42045:1,2002-05-17T20:30:00Z,26.2168,-96.4998,2.0,33.07968631,45.29106866,-99999.0,'11111222,11111222,99999999' 
TABS,ioos:station:wmo:42045:1,2002-05-17T21:00:00Z,26.2168,-96.4998,2.0,34.65507326,47.763686,-99999.0,'11111222,11111222,99999999' 
TABS,ioos:station:wmo:42045:1,2002-05-17T22:00:00Z,26.2168,-96.4998,2.0,59.49849039,38.69476967,-99999.0,'11111222,11111222,99999999' 
TABS,ioos:station:wmo:42045:1,2002-05-17T22:30:00Z,26.2168,-96.4998,2.0,59.83518479,34.68724549,-99999.0,'11111222,11111222,99999999' 
TABS,ioos:station:wmo:42045:1,2002-05-17T23:00:00Z,26.2168,-96.4998,2.0,58.16099781,30.31076706,-99999.0,'11111222,11111222,99999999' 
TABS,ioos:station:wmo:42045:1,2002-05-17T23:30:00Z,26.2168,-96.4998,2.0,58.77706133,25.77307122,-99999.0,'11111222,11111222,99999999' 
TABS,ioos:station:wmo:42045:1,2002-05-18T00:00:00Z,26.2168,-96.4998,2.0,53.23195693,22.52003552,-99999.0,'11111222,11111222,99999999' 
TABS,ioos:station:wmo:42045:1,2002-05-18T01:00:00Z,26.2168,-96.4998,2.0,60.11451176,17.68120471,-99999.0,'11111222,11111222,99999999' 
TABS,ioos:station:wmo:42045:1,2002-05-18T01:30:00Z,26.2168,-96.4998,2.0,78.66916788,10.73932028,-99999.0,'11111222,11111222,99999999' 
TABS,ioos:station:wmo:42045:1,2002-05-18T02:00:00Z,26.2168,-96.4998,2.0,64.97450093,3.995059449,-99999.0,'11133222,11111222,99999999' 
TABS,ioos:station:wmo:42045:1,2002-05-18T02:30:00Z,26.2168,-96.4998,2.0,262.4249171,1.896549498,-99999.0,'11133222,11111222,99999999' 
TABS,ioos:station:wmo:42045:1,2002-05-18T03:00:00Z,26.2168,-96.4998,2.0,224.8355139,2.467812797,-99999.0,'11133222,11111222,99999999' 
TABS,ioos:station:wmo:42045:1,2002-05-18T04:00:00Z,26.2168,-96.4998,2.0,244.1537445,5.344623467,-99999.0,'11133222,11111222,99999999' 
TABS,ioos:station:wmo:42045:1,2002-05-18T04:30:00Z,26.2168,-96.4998,2.0,216.6024014,3.002032645,-99999.0,'11133222,11111222,99999999' 
TABS,ioos:station:wmo:42045:1,2002-05-18T05:00:00Z,26.2168,-96.4998,2.0,169.8923863,4.672515383,-99999.0,'11133222,11111222,99999999' 
TABS,ioos:station:wmo:42045:1,2002-05-18T05:30:00Z,26.2168,-96.4998,2.0,201.7325141,7.750928977,-99999.0,'11133222,11111222,99999999' 
TABS,ioos:station:wmo:42045:1,2002-05-18T06:00:00Z,26.2168,-96.4998,2.0,229.6071058,10.12312699,-99999.0,'11111222,11111222,99999999' 
TABS,ioos:station:wmo:42045:1,2002-05-18T07:00:00Z,26.2168,-96.4998,2.0,194.9003086,19.13338705,-99999.0,'11111222,11111222,99999999' 
TABS,ioos:station:wmo:42045:1,2002-05-18T07:30:00Z,26.2168,-96.4998,2.0,201.6737593,21.71526652,-99999.0,'11111222,11111222,99999999' 
TABS,ioos:station:wmo:42045:1,2002-05-18T08:00:00Z,26.2168,-96.4998,2.0,227.590012,19.55734389,-99999.0,'11111222,11111222,99999999' 
TABS,ioos:station:wmo:42045:1,2002-05-18T08:30:00Z,26.2168,-96.4998,2.0,222.5085464,22.12506723,-99999.0,'11111222,11111222,99999999' 
TABS,ioos:station:wmo:42045:1,2002-05-18T09:00:00Z,26.2168,-96.4998,2.0,233.9046959,26.17439398,-99999.0,'11111222,11111222,99999999' 
TABS,ioos:station:wmo:42045:1,2002-05-18T10:00:00Z,26.2168,-96.4998,2.0,256.170406,30.87498664,-99999.0,'11111222,11111222,99999999' 
TABS,ioos:station:wmo:42045:1,2002-05-18T10:30:00Z,26.2168,-96.4998,2.0,258.2252808,30.97167738,-99999.0,'11111222,11111222,99999999' 
TABS,ioos:station:wmo:42045:1,2002-05-18T11:00:00Z,26.2168,-96.4998,2.0,267.1208318,33.25196235,-99999.0,'11111222,11111222,99999999' 
TABS,ioos:station:wmo:42045:1,2002-05-18T11:30:00Z,26.2168,-96.4998,2.0,270.5293366,36.83156934,-99999.0,'11111222,11111222,99999999' 
TABS,ioos:station:wmo:42045:1,2002-05-18T12:00:00Z,26.2168,-96.4998,2.0,277.0161986,37.08769338,-99999.0,'11111222,11111222,99999999' 
TABS,ioos:station:wmo:42045:1,2002-05-18T13:00:00Z,26.2168,-96.4998,2.0,287.6569476,42.365781,-99999.0,'11111222,11111222,99999999' 
TABS,ioos:station:wmo:42045:1,2002-05-18T13:30:00Z,26.2168,-96.4998,2.0,297.9956003,47.12416047,-99999.0,'11111222,11111222,99999999' 
TABS,ioos:station:wmo:42045:1,2002-05-18T14:00:00Z,26.2168,-96.4998,2.0,302.3949031,49.31435896,-99999.0,'11111222,11111222,99999999' 
TABS,ioos:station:wmo:42045:1,2002-05-18T14:30:00Z,26.2168,-96.4998,2.0,307.3426239,47.54561599,-99999.0,'11111222,11111222,99999999' 
TABS,ioos:station:wmo:42045:1,2002-05-18T15:00:00Z,26.2168,-96.4998,2.0,304.969086,44.37042371,-99999.0,'11111222,11111222,99999999' 
TABS,ioos:station:wmo:42045:1,2002-05-18T16:00:00Z,26.2168,-96.4998,2.0,302.4616532,35.56723492,-99999.0,'11111222,11111222,99999999' 
TABS,ioos:station:wmo:42045:1,2002-05-18T16:30:00Z,26.2168,-96.4998,2.0,299.4517579,33.65974747,-99999.0,'11111222,11111222,99999999' 
TABS,ioos:station:wmo:42045:1,2002-05-18T17:00:00Z,26.2168,-96.4998,2.0,305.2141332,28.99611181,-99999.0,'11111222,11111222,99999999' 
TABS,ioos:station:wmo:42045:1,2002-05-18T17:30:00Z,26.2168,-96.4998,2.0,302.230696,26.45669103,-99999.0,'11111222,11111222,99999999' 
TABS,ioos:station:wmo:42045:1,2002-05-18T18:00:00Z,26.2168,-96.4998,2.0,314.3341173,24.32611765,-99999.0,'11111222,11111222,99999999' 
TABS,ioos:station:wmo:42045:1,2002-05-18T19:00:00Z,26.2168,-96.4998,2.0,317.6488384,20.81117008,-99999.0,'11111222,11111222,99999999' 
TABS,ioos:station:wmo:42045:1,2002-05-18T19:30:00Z,26.2168,-96.4998,2.0,323.7852413,20.64934866,-99999.0,'11111222,11111222,99999999' 
TABS,ioos:station:wmo:42045:1,2002-05-18T20:00:00Z,26.2168,-96.4998,2.0,336.5256478,19.0790461,-99999.0,'11111222,11111222,99999999' 
TABS,ioos:station:wmo:42045:1,2002-05-18T20:30:00Z,26.2168,-96.4998,2.0,347.8224512,17.35042363,-99999.0,'11111222,11111222,99999999' 
TABS,ioos:station:wmo:42045:1,2002-05-18T21:00:00Z,26.2168,-96.4998,2.0,354.4895814,11.97534551,-99999.0,'11111222,11111222,99999999' 
TABS,ioos:station:wmo:42045:1,2002-05-18T22:00:00Z,26.2168,-96.4998,2.0,345.2210449,6.546586897,-99999.0,'11133222,11111222,99999999' 
TABS,ioos:station:wmo:42045:1,2002-05-18T22:30:00Z,26.2168,-96.4998,2.0,340.3823769,6.433443868,-99999.0,'11133222,11111222,99999999' 
TABS,ioos:station:wmo:42045:1,2002-05-18T23:00:00Z,26.2168,-96.4998,2.0,346.5477127,3.094915185,-99999.0,'11133222,11111222,99999999' 
TABS,ioos:station:wmo:42045:1,2002-05-18T23:30:00Z,26.2168,-96.4998,2.0,131.6767821,1.097861558,-99999.0,'11133222,11111222,99999999' 
TABS,ioos:station:wmo:42045:1,2002-05-19T00:00:00Z,26.2168,-96.4998,2.0,97.12499969,4.353619184,-99999.0,'11133222,11111222,99999999' 
TABS,ioos:station:wmo:42045:1,2002-05-19T01:00:00Z,26.2168,-96.4998,2.0,157.0707722,6.699328325,-99999.0,'11133222,11111222,99999999' 
TABS,ioos:station:wmo:42045:1,2002-05-19T01:30:00Z,26.2168,-96.4998,2.0,162.2703355,7.191564503,-99999.0,'11133222,11111222,99999999' 
TABS,ioos:station:wmo:42045:1,2002-05-19T02:00:00Z,26.2168,-96.4998,2.0,175.8696359,9.163798339,-99999.0,'11133222,11111222,99999999' 
TABS,ioos:station:wmo:42045:1,2002-05-19T02:30:00Z,26.2168,-96.4998,2.0,178.9080288,9.971810267,-99999.0,'11133222,11111222,99999999' 
TABS,ioos:station:wmo:42045:1,2002-05-19T03:00:00Z,26.2168,-96.4998,2.0,174.7337021,10.13276862,-99999.0,'11111222,11111222,99999999' 
TABS,ioos:station:wmo:42045:1,2002-05-19T04:00:00Z,26.2168,-96.4998,2.0,203.2450324,11.27528714,-99999.0,'11111222,11111222,99999999' 
TABS,ioos:station:wmo:42045:1,2002-05-19T04:30:00Z,26.2168,-96.4998,2.0,205.1595922,14.04225765,-99999.0,'11111222,11111222,99999999' 
TABS,ioos:station:wmo:42045:1,2002-05-19T05:00:00Z,26.2168,-96.4998,2.0,228.9854905,14.75056948,-99999.0,'11111222,11111222,99999999' 
TABS,ioos:station:wmo:42045:1,2002-05-19T05:30:00Z,26.2168,-96.4998,2.0,225.970704,14.60385223,-99999.0,'11111222,11111222,99999999' 